Year,Month,Day,Hour,Minute,Value (Times are PST for temperature in C)
2008,07,26,12,48,18.60
2008,07,26,12,49,18.60
2008,07,26,12,50,18.50
2008,07,26,12,51,18.50
2008,07,26,12,52,18.60
2008,07,26,12,53,18.70
2008,07,26,12,54,18.80
2008,07,26,12,55,18.90
2008,07,26,12,56,18.90
2008,07,26,12,57,18.90
2008,07,26,12,58,18.90
2008,07,26,12,59,18.80
2008,07,26,13,00,18.70
2008,07,26,13,01,18.60
2008,07,26,13,02,18.50
2008,07,26,13,03,18.40
2008,07,26,13,04,18.50
2008,07,26,13,05,18.60
2008,07,26,13,06,18.70
2008,07,26,13,07,18.90
2008,07,26,13,08,18.80
2008,07,26,13,09,18.80
2008,07,26,13,10,18.90
2008,07,26,13,11,18.90
2008,07,26,13,12,18.90
2008,07,26,13,13,19.00
2008,07,26,13,14,19.10
2008,07,26,13,15,19.00
2008,07,26,13,16,18.90
2008,07,26,13,17,19.00
2008,07,26,13,18,19.10
2008,07,26,13,19,19.10
2008,07,26,13,20,19.20
2008,07,26,13,21,19.20
2008,07,26,13,22,19.10
2008,07,26,13,23,19.10
2008,07,26,13,24,19.10
2008,07,26,13,25,19.10
2008,07,26,13,26,19.10
2008,07,26,13,27,19.10
2008,07,26,13,28,19.20
2008,07,26,13,29,19.30
2008,07,26,13,30,19.40
2008,07,26,13,31,19.40
2008,07,26,13,32,19.50
2008,07,26,13,33,19.50
2008,07,26,13,34,19.50
2008,07,26,13,35,19.40
2008,07,26,13,36,19.30
2008,07,26,13,37,19.10
2008,07,26,13,38,18.90
2008,07,26,13,39,18.90
2008,07,26,13,40,18.90
2008,07,26,13,41,18.80
2008,07,26,13,42,18.70
2008,07,26,13,43,18.70
2008,07,26,13,44,18.70
2008,07,26,13,45,18.80
2008,07,26,13,46,18.70
2008,07,26,13,47,18.70
2008,07,26,13,48,18.80
2008,07,26,13,49,18.90
2008,07,26,13,50,19.00
2008,07,26,13,51,19.10
2008,07,26,13,52,19.20
2008,07,26,13,53,19.30
2008,07,26,13,54,19.40
2008,07,26,13,55,19.30
2008,07,26,13,56,19.30
2008,07,26,13,57,19.20
2008,07,26,13,58,19.20
2008,07,26,13,59,19.10
2008,07,26,14,00,19.10
2008,07,26,14,01,19.10
2008,07,26,14,02,19.10
2008,07,26,14,03,19.10
2008,07,26,14,04,19.20
2008,07,26,14,05,19.20
2008,07,26,14,06,19.20
2008,07,26,14,07,19.20
2008,07,26,14,08,19.20
2008,07,26,14,09,19.20
2008,07,26,14,10,19.10
2008,07,26,14,11,19.10
2008,07,26,14,12,19.10
2008,07,26,14,13,19.10
2008,07,26,14,14,19.10
2008,07,26,14,15,19.10
2008,07,26,14,16,19.30
2008,07,26,14,17,19.30
2008,07,26,14,18,19.30
2008,07,26,14,19,19.40
2008,07,26,14,20,19.40
2008,07,26,14,21,19.50
2008,07,26,14,22,19.50
2008,07,26,14,23,19.70
2008,07,26,14,24,19.70
2008,07,26,14,25,19.80
2008,07,26,14,26,19.80
2008,07,26,14,27,19.80
2008,07,26,14,28,19.80
2008,07,26,14,29,19.70
2008,07,26,14,30,19.60
2008,07,26,14,31,19.60
2008,07,26,14,32,19.60
2008,07,26,14,33,19.60
2008,07,26,14,34,19.60
2008,07,26,14,35,19.60
2008,07,26,14,36,19.60
2008,07,26,14,37,19.50
2008,07,26,14,38,19.40
2008,07,26,14,39,19.40
2008,07,26,14,40,19.50
2008,07,26,14,41,19.60
2008,07,26,14,42,19.60
2008,07,26,14,43,19.80
2008,07,26,14,44,19.90
2008,07,26,14,45,19.90
2008,07,26,14,46,20.00
2008,07,26,14,47,20.10
2008,07,26,14,48,20.30
2008,07,26,14,49,20.30
2008,07,26,14,50,20.30
2008,07,26,14,51,20.30
2008,07,26,14,52,20.30
2008,07,26,14,53,20.30
2008,07,26,14,54,20.30
2008,07,26,14,55,20.30
2008,07,26,14,56,20.30
2008,07,26,14,57,20.40
2008,07,26,14,58,20.20
2008,07,26,14,59,20.10
2008,07,26,15,00,20.10
2008,07,26,15,01,20.10
2008,07,26,15,02,20.00
2008,07,26,15,03,19.90
2008,07,26,15,04,19.90
2008,07,26,15,05,19.90
2008,07,26,15,06,19.80
2008,07,26,15,07,19.70
2008,07,26,15,08,19.60
2008,07,26,15,09,19.60
2008,07,26,15,10,19.60
2008,07,26,15,11,19.60
2008,07,26,15,12,19.60
2008,07,26,15,13,19.70
2008,07,26,15,14,19.70
2008,07,26,15,15,19.80
2008,07,26,15,16,19.90
2008,07,26,15,17,19.90
2008,07,26,15,18,19.90
2008,07,26,15,19,19.80
2008,07,26,15,20,19.80
2008,07,26,15,21,19.80
2008,07,26,15,22,19.90
2008,07,26,15,23,20.00
2008,07,26,15,24,20.10
2008,07,26,15,25,20.20
2008,07,26,15,26,20.20
2008,07,26,15,27,20.30
2008,07,26,15,28,20.40
2008,07,26,15,29,20.50
2008,07,26,15,30,20.70
2008,07,26,15,31,20.60
2008,07,26,15,32,20.60
2008,07,26,15,33,20.50
2008,07,26,15,34,20.50
2008,07,26,15,35,20.40
2008,07,26,15,36,20.30
2008,07,26,15,37,20.20
2008,07,26,15,38,20.20
2008,07,26,15,39,20.20
2008,07,26,15,40,20.20
2008,07,26,15,41,20.20
2008,07,26,15,42,20.10
2008,07,26,15,43,20.10
2008,07,26,15,44,19.90
2008,07,26,15,45,19.90
2008,07,26,15,46,19.80
2008,07,26,15,47,19.80
2008,07,26,15,48,19.80
2008,07,26,15,49,19.80
2008,07,26,15,50,19.80
2008,07,26,15,51,19.90
2008,07,26,15,52,20.00
2008,07,26,15,53,20.20
2008,07,26,15,54,20.20
2008,07,26,15,55,20.40
2008,07,26,15,56,20.50
2008,07,26,15,57,20.50
2008,07,26,15,58,20.50
2008,07,26,15,59,20.50
2008,07,26,16,00,20.70
2008,07,26,16,01,20.70
2008,07,26,16,02,20.80
2008,07,26,16,03,20.80
2008,07,26,16,04,20.70
2008,07,26,16,05,20.70
2008,07,26,16,06,20.70
2008,07,26,16,07,20.70
2008,07,26,16,08,20.80
2008,07,26,16,09,20.80
2008,07,26,16,10,20.80
2008,07,26,16,11,20.90
2008,07,26,16,12,21.00
2008,07,26,16,13,20.90
2008,07,26,16,14,20.90
2008,07,26,16,15,20.90
2008,07,26,16,16,20.90
2008,07,26,16,17,20.80
2008,07,26,16,18,20.80
2008,07,26,16,19,20.70
2008,07,26,16,20,20.70
2008,07,26,16,21,20.70
2008,07,26,16,22,20.60
2008,07,26,16,23,20.60
2008,07,26,16,24,20.50
2008,07,26,16,25,20.50
2008,07,26,16,26,20.50
2008,07,26,16,27,20.50
2008,07,26,16,28,20.50
2008,07,26,16,29,20.50
2008,07,26,16,30,20.50
2008,07,26,16,31,20.40
2008,07,26,16,32,20.40
2008,07,26,16,33,20.40
2008,07,26,16,34,20.40
2008,07,26,16,35,20.50
2008,07,26,16,36,20.50
2008,07,26,16,37,20.50
2008,07,26,16,38,20.50
2008,07,26,16,39,20.40
2008,07,26,16,40,20.40
2008,07,26,16,41,20.40
2008,07,26,16,42,20.30
2008,07,26,16,43,20.30
2008,07,26,16,44,20.30
2008,07,26,16,45,20.20
2008,07,26,16,46,20.20
2008,07,26,16,47,20.10
2008,07,26,16,48,20.10
2008,07,26,16,49,20.10
2008,07,26,16,50,20.10
2008,07,26,16,51,20.10
2008,07,26,16,52,20.20
2008,07,26,16,53,20.20
2008,07,26,16,54,20.20
2008,07,26,16,55,20.20
2008,07,26,16,56,20.20
2008,07,26,16,57,20.20
2008,07,26,16,58,20.20
2008,07,26,16,59,20.20
2008,07,26,17,00,20.20
2008,07,26,17,01,20.20
2008,07,26,17,02,20.20
2008,07,26,17,03,20.20
2008,07,26,17,04,20.20
2008,07,26,17,05,20.30
2008,07,26,17,06,20.40
2008,07,26,17,07,20.40
2008,07,26,17,08,20.40
2008,07,26,17,09,20.50
2008,07,26,17,10,20.50
2008,07,26,17,11,20.40
2008,07,26,17,12,20.40
2008,07,26,17,13,20.40
2008,07,26,17,14,20.40
2008,07,26,17,15,20.40
2008,07,26,17,16,20.30
2008,07,26,17,17,20.30
2008,07,26,17,18,20.30
2008,07,26,17,19,20.30
2008,07,26,17,20,20.30
2008,07,26,17,21,20.20
2008,07,26,17,22,20.20
2008,07,26,17,23,20.20
2008,07,26,17,24,20.20
2008,07,26,17,25,20.20
2008,07,26,17,26,20.20
2008,07,26,17,27,20.20
2008,07,26,17,28,20.10
2008,07,26,17,29,19.90
2008,07,26,17,30,19.90
2008,07,26,17,31,19.90
2008,07,26,17,32,19.90
2008,07,26,17,33,19.80
2008,07,26,17,34,19.80
2008,07,26,17,35,19.80
2008,07,26,17,36,19.80
2008,07,26,17,37,19.80
2008,07,26,17,38,19.80
2008,07,26,17,39,19.80
2008,07,26,17,40,19.70
2008,07,26,17,41,19.70
2008,07,26,17,42,19.70
2008,07,26,17,43,19.70
2008,07,26,17,44,19.60
2008,07,26,17,45,19.60
2008,07,26,17,46,19.60
2008,07,26,17,47,19.50
2008,07,26,17,48,19.50
2008,07,26,17,49,19.50
2008,07,26,17,50,19.50
2008,07,26,17,51,19.40
2008,07,26,17,52,19.40
2008,07,26,17,53,19.40
2008,07,26,17,54,19.30
2008,07,26,17,55,19.40
2008,07,26,17,56,19.40
2008,07,26,17,57,19.40
2008,07,26,17,58,19.40
2008,07,26,17,59,19.40
2008,07,26,18,00,19.30
2008,07,26,18,01,19.30
2008,07,26,18,02,19.30
2008,07,26,18,03,19.30
2008,07,26,18,04,19.20
2008,07,26,18,05,19.20
2008,07,26,18,06,19.20
2008,07,26,18,07,19.20
2008,07,26,18,08,19.20
2008,07,26,18,09,19.20
2008,07,26,18,10,19.20
2008,07,26,18,11,19.20
2008,07,26,18,12,19.20
2008,07,26,18,13,19.20
2008,07,26,18,14,19.30
2008,07,26,18,15,19.30
2008,07,26,18,16,19.30
2008,07,26,18,17,19.30
2008,07,26,18,18,19.30
2008,07,26,18,19,19.30
2008,07,26,18,20,19.30
2008,07,26,18,21,19.30
2008,07,26,18,22,19.30
2008,07,26,18,23,19.30
2008,07,26,18,24,19.30
2008,07,26,18,25,19.30
2008,07,26,18,26,19.30
2008,07,26,18,27,19.30
2008,07,26,18,28,19.30
2008,07,26,18,29,19.30
2008,07,26,18,30,19.30
2008,07,26,18,31,19.20
2008,07,26,18,32,19.20
2008,07,26,18,33,19.20
2008,07,26,18,34,19.20
2008,07,26,18,35,19.20
2008,07,26,18,36,19.20
2008,07,26,18,37,19.20
2008,07,26,18,38,19.20
2008,07,26,18,39,19.30
2008,07,26,18,40,19.30
2008,07,26,18,41,19.30
2008,07,26,18,42,19.30
2008,07,26,18,43,19.40
2008,07,26,18,44,19.40
2008,07,26,18,45,19.40
2008,07,26,18,46,19.40
2008,07,26,18,47,19.40
2008,07,26,18,48,19.40
2008,07,26,18,49,19.40
2008,07,26,18,50,19.40
2008,07,26,18,51,19.40
2008,07,26,18,52,19.50
2008,07,26,18,53,19.50
2008,07,26,18,54,19.50
2008,07,26,18,55,19.50
2008,07,26,18,56,19.60
2008,07,26,18,57,19.60
2008,07,26,18,58,19.60
2008,07,26,18,59,19.60
2008,07,26,19,00,19.60
2008,07,26,19,01,19.60
2008,07,26,19,02,19.60
2008,07,26,19,03,19.50
2008,07,26,19,04,19.50
2008,07,26,19,05,19.50
2008,07,26,19,06,19.50
2008,07,26,19,07,19.40
2008,07,26,19,08,19.40
2008,07,26,19,09,19.40
2008,07,26,19,10,19.40
2008,07,26,19,11,19.40
2008,07,26,19,12,19.40
2008,07,26,19,13,19.50
2008,07,26,19,14,19.50
2008,07,26,19,15,19.50
2008,07,26,19,16,19.50
2008,07,26,19,17,19.60
2008,07,26,19,18,19.60
2008,07,26,19,19,19.60
2008,07,26,19,20,19.60
2008,07,26,19,21,19.60
2008,07,26,19,22,19.60
2008,07,26,19,23,19.70
2008,07,26,19,24,19.70
2008,07,26,19,25,19.60
2008,07,26,19,26,19.60
2008,07,26,19,27,19.60
2008,07,26,19,28,19.60
2008,07,26,19,29,19.60
2008,07,26,19,30,19.60
2008,07,26,19,31,19.60
2008,07,26,19,32,19.60
2008,07,26,19,33,19.60
2008,07,26,19,34,19.70
2008,07,26,19,35,19.70
2008,07,26,19,36,19.70
2008,07,26,19,37,19.70
2008,07,26,19,38,19.70
2008,07,26,19,39,19.70
2008,07,26,19,40,19.70
2008,07,26,19,41,19.70
2008,07,26,19,42,19.70
2008,07,26,19,43,19.70
2008,07,26,19,44,19.70
2008,07,26,19,45,19.70
2008,07,26,19,46,19.70
2008,07,26,19,47,19.70
2008,07,26,19,48,19.70
2008,07,26,19,49,19.70
2008,07,26,19,50,19.70
2008,07,26,19,51,19.70
2008,07,26,19,52,19.70
2008,07,26,19,53,19.70
2008,07,26,19,54,19.70
2008,07,26,19,55,19.70
2008,07,26,19,56,19.70
2008,07,26,19,57,19.70
2008,07,26,19,58,19.70
2008,07,26,19,59,19.70
2008,07,26,20,00,19.70
2008,07,26,20,01,19.70
2008,07,26,20,02,19.70
2008,07,26,20,03,19.70
2008,07,26,20,04,19.70
2008,07,26,20,05,19.70
2008,07,26,20,06,19.70
2008,07,26,20,07,19.70
2008,07,26,20,08,19.70
2008,07,26,20,09,19.70
2008,07,26,20,10,19.70
2008,07,26,20,11,19.70
2008,07,26,20,12,19.70
2008,07,26,20,13,19.70
2008,07,26,20,14,19.70
2008,07,26,20,15,19.70
2008,07,26,20,16,19.70
2008,07,26,20,17,19.70
2008,07,26,20,18,19.70
2008,07,26,20,19,19.70
2008,07,26,20,20,19.70
2008,07,26,20,21,19.70
2008,07,26,20,22,19.70
2008,07,26,20,23,19.70
2008,07,26,20,24,19.70
2008,07,26,20,25,19.70
2008,07,26,20,26,19.60
2008,07,26,20,27,19.60
2008,07,26,20,28,19.60
2008,07,26,20,29,19.60
2008,07,26,20,30,19.50
2008,07,26,20,31,19.50
2008,07,26,20,32,19.50
2008,07,26,20,33,19.50
2008,07,26,20,34,19.50
2008,07,26,20,35,19.50
2008,07,26,20,36,19.50
2008,07,26,20,37,19.40
2008,07,26,20,38,19.40
2008,07,26,20,39,19.40
2008,07,26,20,40,19.40
2008,07,26,20,41,19.40
2008,07,26,20,42,19.40
2008,07,26,20,43,19.40
2008,07,26,20,44,19.40
2008,07,26,20,45,19.40
2008,07,26,20,46,19.40
2008,07,26,20,47,19.40
